CW1490 Weather Reports


Display with metric or nautical units.
time (UTC)temp
F
wind
direction
speed
MPH
gust
MPH
rain 1hr
in
rain 24hr
in
rain mn
in
humidity
%
barometer
mb
20260831000517 73 304 3.0 12.0 0.00 0.00 0.00 68 1017.3
20260831000019 73 38 3.0 7.0 0.00 0.00 0.00 69 1017.2
20260830235510 73 309 1.0 12.0 0.00 0.00 0.00 69 1017.0
20260830235008 74 229 2.0 12.0 0.00 0.00 0.00 68 1016.9
20260830234535 74 241 5.0 13.0 0.00 0.00 0.00 67 1016.8
20260830234015 74 173 8.0 13.0 0.00 0.00 0.00 67 1016.7
20260830233515 74 221 1.0 15.0 0.00 0.00 0.00 67 1016.8
20260830233029 74 221 5.0 15.0 0.00 0.00 0.00 68 1016.8
20260830232504 74 238 4.0 8.0 0.00 0.00 0.00 68 1016.8
20260830232004 74 229 1.0 10.0 0.00 0.00 0.00 68 1016.8
20260830231516 74 205 2.0 10.0 0.00 0.00 0.00 68 1016.8
20260830231017 74 232 3.0 10.0 0.00 0.00 0.00 69 1016.7
20260830230506 75 238 2.0 7.0 0.00 0.00 0.00 68 1016.7
20260830230033 75 309 2.0 9.0 0.00 0.00 0.00 68 1016.8
20260830225509 75 229 4.0 13.0 0.00 0.00 0.00 67 1016.8
20260830225008 75 259 6.0 13.0 0.00 0.00 0.00 67 1016.8
20260830224520 75 212 5.0 12.0 0.00 0.00 0.00 68 1016.8
20260830224012 75 241 4.0 10.0 0.00 0.00 0.00 69 1016.8
20260830223510 75 219 5.0 9.0 0.00 0.00 0.00 68 1016.6
20260830223028 75 232 4.0 11.0 0.00 0.00 0.00 69 1016.8
20260830222515 75 218 5.0 11.0 0.00 0.00 0.00 68 1016.8
20260830222013 75 218 6.0 10.0 0.00 0.00 0.00 68 1016.7
20260830221531 75 224 4.0 10.0 0.00 0.00 0.00 70 1016.7
20260830221017 75 183 6.0 10.0 0.00 0.00 0.00 68 1016.8
20260830220519 76 217 3.0 9.0 0.00 0.00 0.00 69 1016.8
20260830220011 76 198 5.0 7.0 0.00 0.00 0.00 68 1016.8
20260830215518 76 188 4.0 6.0 0.00 0.00 0.00 69 1016.7
20260830215007 76 221 4.0 6.0 0.00 0.00 0.00 66 1016.8
20260830214516 76 198 3.0 6.0 0.00 0.00 0.00 65 1016.7
20260830214008 77 205 2.0 8.0 0.00 0.00 0.00 64 1016.7
20260830213508 77 198 3.0 11.0 0.00 0.00 0.00 64 1016.8
20260830213037 77 214 6.0 15.0 0.00 0.00 0.00 62 1016.8
20260830212512 77 227 7.0 15.0 0.00 0.00 0.00 63 1016.8
20260830212012 77 201 7.0 12.0 0.00 0.00 0.00 62 1016.8
20260830211548 78 200 6.0 12.0 0.00 0.00 0.00 61 1016.8
20260830211016 78 242 5.0 11.0 0.00 0.00 0.00 61 1016.9
20260830210519 78 218 4.0 17.0 0.00 0.00 0.00 61 1016.8
20260830210025 79 236 6.0 17.0 0.00 0.00 0.00 60 1016.8
20260830205504 79 221 9.0 19.0 0.00 0.00 0.00 60 1016.9
20260830205007 79 219 11.0 20.0 0.00 0.00 0.00 59 1016.8
20260830204515 79 224 9.0 20.0 0.00 0.00 0.00 60 1016.9
20260830204006 79 225 8.0 20.0 0.00 0.00 0.00 60 1016.9
20260830203506 79 178 9.0 20.0 0.00 0.00 0.00 63 1016.9
20260830203030 78 188 7.0 19.0 0.00 0.00 0.00 63 1016.9
20260830202513 79 298 6.0 18.0 0.00 0.00 0.00 62 1016.8
20260830202023 80 210 10.0 19.0 0.00 0.00 0.00 60 1016.9
20260830201527 79 193 8.0 19.0 0.00 0.00 0.00 61 1016.9
20260830201015 79 214 6.0 16.0 0.00 0.00 0.00 61 1017.0
20260830200503 78 184 9.0 18.0 0.00 0.00 0.00 64 1016.9
20260830200009 78 231 8.0 18.0 0.00 0.00 0.00 61 1017.0
20260830195504 79 221 6.0 15.0 0.00 0.00 0.00 63 1017.0
20260830195017 78 232 9.0 16.0 0.00 0.00 0.00 58 1017.1
20260830194514 78 219 9.0 16.0 0.00 0.00 0.00 60 1017.1
20260830194004 78 200 10.0 16.0 0.00 0.00 0.00 59 1017.1
20260830193509 79 224 10.0 17.0 0.00 0.00 0.00 57 1017.2
20260830193020 79 208 9.0 17.0 0.00 0.00 0.00 57 1017.3
20260830192508 80 203 9.0 15.0 0.00 0.00 0.00 57 1017.3
20260830192021 80 225 9.0 15.0 0.00 0.00 0.00 57 1017.2
20260830191537 81 178 7.0 15.0 0.00 0.00 0.00 57 1017.3
20260830191014 80 214 6.0 15.0 0.00 0.00 0.00 57 1017.3
20260830190515 79 238 8.0 15.0 0.00 0.00 0.00 57 1017.3
20260830190031 79 195 7.0 12.0 0.00 0.00 0.00 58 1017.5
20260830185513 79 209 5.0 12.0 0.00 0.00 0.00 61 1017.6
20260830185017 79 215 9.0 12.0 0.00 0.00 0.00 59 1017.7
20260830184511 79 243 5.0 9.0 0.00 0.00 0.00 63 1017.7
20260830184017 79 221 4.0 9.0 0.00 0.00 0.00 62 1017.7
20260830183504 78 162 5.0 9.0 0.00 0.00 0.00 64 1017.8
20260830183014 78 219 4.0 12.0 0.00 0.00 0.00 64 1017.9
20260830182522 78 178 5.0 12.0 0.00 0.00 0.00 63 1017.9
20260830182014 78 194 6.0 10.0 0.00 0.00 0.00 63 1017.9
20260830181534 79 171 5.0 10.0 0.00 0.00 0.00 61 1018.0
20260830181016 78 221 4.0 9.0 0.00 0.00 0.00 63 1018.0
20260830180515 77 219 5.0 9.0 0.00 0.00 0.00 61 1018.1
20260830180245 77 195 3.0 8.0 0.00 0.00 0.00 65 1018.1
20260830180241 76 249 2.0 6.0 0.00 0.00 0.00 67 1018.2
20260830180236 77 215 1.0 7.0 0.00 0.00 0.00 62 1018.2
20260830174022 77 126 1.0 6.0 0.00 0.00 0.00 64 1018.4
20260830173517 77 196 1.0 8.0 0.00 0.00 0.00 64 1018.4
20260830173012 78 209 5.0 9.0 0.00 0.00 0.00 60 1018.5
20260830172508 77 225 4.0 9.0 0.00 0.00 0.00 63 1018.6
20260830172019 77 153 3.0 7.0 0.00 0.00 0.00 63 1018.5
20260830171518 76 205 2.0 8.0 0.00 0.00 0.00 65 1018.7
20260830171021 76 98 1.0 8.0 0.00 0.00 0.00 66 1018.6
20260830170512 76 165 1.0 4.0 0.00 0.00 0.00 66 1018.6
20260830170024 76 67 1.0 4.0 0.00 0.00 0.00 66 1018.8
20260830165510 75 291 0.0 6.0 0.00 0.00 0.00 65 1019.1
20260830165014 75 129 2.0 6.0 0.00 0.00 0.00 67 1019.2
20260830164534 75 132 2.0 4.0 0.00 0.00 0.00 67 1019.3
20260830164018 75 46 1.0 7.0 0.00 0.00 0.00 67 1019.4
20260830163517 75 221 1.0 9.0 0.00 0.00 0.00 66 1019.5
20260830163033 75 202 5.0 9.0 0.00 0.00 0.00 64 1019.4
20260830162517 75 178 3.0 8.0 0.00 0.00 0.00 67 1019.3
20260830162016 75 171 4.0 8.0 0.00 0.00 0.00 67 1019.5
20260830161549 75 137 2.0 6.0 0.00 0.00 0.00 69 1019.5
20260830161021 75 309 1.0 6.0 0.00 0.00 0.00 71 1019.5
20260830160510 75 93 1.0 7.0 0.00 0.00 0.00 70 1019.6
20260830160019 74 67 2.0 7.0 0.00 0.00 0.00 75 1019.7
20260830155510 73 156 2.0 6.0 0.00 0.00 0.00 73 1019.8
20260830155012 73 185 2.0 5.0 0.00 0.00 0.00 74 1019.8
20260830154535 73 221 2.0 8.0 0.00 0.00 0.00 74 1019.9
20260830154012 73 205 4.0 8.0 0.00 0.00 0.00 70 1019.9
20260830153512 73 225 4.0 10.0 0.00 0.00 0.00 72 1020.0
20260830153044 73 173 2.0 10.0 0.00 0.00 0.00 72 1020.1
20260830152516 72 205 4.0 8.0 0.00 0.00 0.00 72 1020.1
20260830152017 72 255 1.0 7.0 0.00 0.00 0.00 74 1020.1
20260830151531 71 205 2.0 8.0 0.00 0.00 0.00 75 1020.1
20260830151017 71 225 4.0 8.0 0.00 0.00 0.00 74 1020.2
20260830150521 70 218 3.0 6.0 0.00 0.00 0.00 74 1020.2
20260830150035 70 198 2.0 7.0 0.00 0.00 0.00 76 1020.3
20260830145509 69 215 4.0 7.0 0.00 0.00 0.00 76 1020.2
20260830145011 70 190 2.0 5.0 0.00 0.00 0.00 75 1020.1
20260830144534 70 205 3.0 8.0 0.00 0.00 0.00 74 1020.2
20260830144012 70 219 4.0 8.0 0.00 0.00 0.00 72 1020.3
20260830143515 70 219 5.0 8.0 0.00 0.00 0.00 72 1020.4
20260830143037 70 207 3.0 9.0 0.00 0.00 0.00 72 1020.5
20260830142515 70 225 4.0 9.0 0.00 0.00 0.00 73 1020.4
20260830142017 70 219 5.0 9.0 0.00 0.00 0.00 73 1020.4
20260830141531 70 213 5.0 9.0 0.00 0.00 0.00 73 1020.5
20260830141015 70 210 6.0 9.0 0.00 0.00 0.00 72 1020.5
20260830140516 69 203 6.0 8.0 0.00 0.00 0.00 74 1020.5
20260830140038 69 224 3.0 7.0 0.00 0.00 0.00 76 1020.6
20260830135518 69 210 3.0 7.0 0.00 0.00 0.00 76 1020.5
20260830135015 69 170 3.0 8.0 0.00 0.00 0.00 75 1020.5
20260830134537 69 133 2.0 9.0 0.00 0.00 0.00 76 1020.4
20260830134015 69 221 4.0 9.0 0.00 0.00 0.00 73 1020.5
20260830133513 68 265 1.0 10.0 0.00 0.00 0.00 75 1020.6
20260830133035 68 200 6.0 12.0 0.00 0.00 0.00 74 1020.6
20260830132513 68 196 8.0 12.0 0.00 0.00 0.00 75 1020.6
20260830132013 68 186 7.0 11.0 0.00 0.00 0.00 76 1020.6
20260830131530 67 216 7.0 12.0 0.00 0.00 0.00 76 1020.7
20260830131019 66 196 7.0 12.0 0.00 0.00 0.00 78 1020.8
20260830130515 65 167 4.0 7.0 0.00 0.00 0.00 81 1020.8
20260830130051 64 217 3.0 6.0 0.00 0.00 0.00 82 1020.9
20260830125518 63 236 2.0 6.0 0.00 0.00 0.00 83 1020.9
20260830125014 63 249 2.0 4.0 0.00 0.00 0.00 84 1021.0
20260830124534 62 265 1.0 5.0 0.00 0.00 0.00 86 1021.1
20260830124018 62 137 2.0 5.0 0.00 0.00 0.00 86 1021.1
20260830123519 62 51 1.0 3.0 0.00 0.00 0.00 86 1021.1
20260830123035 62 165 1.0 3.0 0.00 0.00 0.00 86 1021.1
20260830122519 62 265 0.0 5.0 0.00 0.00 0.00 88 1021.3
20260830122014 61 205 1.0 5.0 0.00 0.00 0.00 88 1021.4
20260830121530 61 26 3.0 5.0 0.00 0.00 0.00 88 1021.3
20260830121006 61 57 2.0 5.0 0.00 0.00 0.00 90 1021.3
20260830120505 60 26 2.0 5.0 0.00 0.00 0.00 91 1021.4
20260830120009 60 9 3.0 5.0 0.00 0.00 0.00 92 1021.4
20260830115515 59 61 1.0 4.0 0.00 0.00 0.00 93 1021.4
20260830115015 58 85 2.0 5.0 0.00 0.00 0.00 93 1021.4
20260830114525 58 78 3.0 5.0 0.00 0.00 0.00 94 1021.4
20260830114011 58 39 3.0 5.0 0.00 0.00 0.00 94 1021.5
20260830113510 57 59 2.0 4.0 0.00 0.00 0.00 94 1021.4
20260830113020 57 46 2.0 4.0 0.00 0.00 0.00 94 1021.5
20260830112514 56 51 2.0 4.0 0.00 0.00 0.00 94 1021.6
20260830112015 56 39 2.0 4.0 0.00 0.00 0.00 94 1021.7
20260830111527 56 38 2.0 3.0 0.00 0.00 0.00 94 1021.7
20260830111012 56 67 1.0 3.0 0.00 0.00 0.00 94 1021.7
20260830110504 55 34 1.0 3.0 0.00 0.00 0.00 94 1021.7
20260830110008 55 51 1.0 3.0 0.00 0.00 0.00 94 1021.7
20260830105517 55 44 1.0 2.0 0.00 0.00 0.00 93 1021.7
20260830105008 55 51 1.0 3.0 0.00 0.00 0.00 93 1021.7
20260830104534 55 334 0.0 3.0 0.00 0.00 0.00 93 1021.7
20260830104008 55 314 1.0 3.0 0.00 0.00 0.00 93 1021.6
20260830103508 55 46 2.0 3.0 0.00 0.00 0.00 93 1021.5
20260830103017 55 34 0.0 4.0 0.00 0.00 0.00 93 1021.5
20260830102508 55 212 2.0 4.0 0.00 0.00 0.00 93 1021.5
20260830102014 55 221 2.0 4.0 0.00 0.00 0.00 93 1021.5
20260830101526 55 215 1.0 3.0 0.00 0.00 0.00 93 1021.5
20260830101017 55 205 2.0 3.0 0.00 0.00 0.00 93 1021.6
20260830100514 55 234 1.0 2.0 0.00 0.00 0.00 92 1021.6
20260830100006 55 265 1.0 2.0 0.00 0.00 0.00 92 1021.5
20260830095516 55 238 1.0 2.0 0.00 0.00 0.00 93 1021.5
20260830095004 55 238 0.0 3.0 0.00 0.00 0.00 93 1021.5
20260830094533 55 196 0.0 3.0 0.00 0.00 0.00 93 1021.6
20260830094013 56 221 1.0 3.0 0.00 0.00 0.00 93 1021.6
20260830093507 56 200 2.0 3.0 0.00 0.00 0.00 93 1021.7
20260830093016 55 193 2.0 4.0 0.00 0.00 0.00 93 1021.7
20260830092509 56 212 2.0 4.0 0.00 0.00 0.00 93 1021.8
20260830092009 55 212 2.0 5.0 0.00 0.00 0.00 93 1021.9
20260830091528 55 198 3.0 5.0 0.00 0.00 0.00 93 1021.8
20260830091017 55 198 3.0 4.0 0.00 0.00 0.00 92 1021.9
20260830090514 56 247 1.0 4.0 0.00 0.00 0.00 92 1021.8
20260830090037 56 232 2.0 4.0 0.00 0.00 0.00 92 1021.9
20260830085512 56 238 1.0 3.0 0.00 0.00 0.00 92 1021.8
20260830085017 56 282 0.0 2.0 0.00 0.00 0.00 92 1021.8
20260830084531 56 137 0.0 3.0 0.00 0.00 0.00 92 1021.7
20260830084014 56 247 1.0 4.0 0.00 0.00 0.00 92 1021.8
20260830083504 56 286 0.0 4.0 0.00 0.00 0.00 92 1021.9
20260830083011 56 221 1.0 4.0 0.00 0.00 0.00 92 1021.9
20260830082506 55 245 2.0 4.0 0.00 0.00 0.00 92 1021.9
20260830082012 56 265 0.0 4.0 0.00 0.00 0.00 92 1021.9
20260830081516 56 234 2.0 4.0 0.00 0.00 0.00 92 1022.0
20260830081012 56 198 1.0 3.0 0.00 0.00 0.00 92 1021.8
20260830080508 56 265 1.0 3.0 0.00 0.00 0.00 92 1021.9
20260830080024 56 221 1.0 3.0 0.00 0.00 0.00 92 1021.9
20260830075512 56 178 1.0 3.0 0.00 0.00 0.00 92 1022.0
20260830075015 56 200 1.0 3.0 0.00 0.00 0.00 92 1022.0
20260830074531 56 238 1.0 4.0 0.00 0.00 0.00 92 1022.0
20260830074014 56 242 2.0 4.0 0.00 0.00 0.00 92 1022.0
20260830073514 56 200 2.0 7.0 0.00 0.00 0.00 92 1022.0
20260830073030 56 234 3.0 7.0 0.00 0.00 0.00 93 1021.9
20260830072514 55 210 3.0 5.0 0.00 0.00 0.00 93 1021.9
20260830072006 55 212 2.0 5.0 0.00 0.00 0.00 92 1021.9
20260830071514 55 219 3.0 5.0 0.00 0.00 0.00 92 1021.8
20260830071013 55 201 3.0 5.0 0.00 0.00 0.00 92 1021.8
20260830070511 55 221 3.0 6.0 0.00 0.00 0.00 92 1021.8
20260830070021 55 245 3.0 6.0 0.00 0.00 0.00 93 1021.8
20260830065512 55 232 3.0 6.0 0.00 0.00 0.00 92 1021.8
20260830065012 54 221 4.0 6.0 0.00 0.00 0.00 92 1021.7
20260830064525 54 201 4.0 5.0 0.00 0.00 0.00 92 1021.7
20260830064015 54 190 1.0 3.0 0.00 0.00 0.00 92 1021.8
20260830063515 55 221 2.0 3.0 0.00 0.00 0.00 92 1021.9
20260830063030 54 212 1.0 2.0 0.00 0.00 0.00 92 1021.8
20260830062513 54 178 0.0 2.0 0.00 0.00 0.00 92 1021.8
20260830062015 55 247 0.0 1.0 0.00 0.00 0.00 92 1021.8
20260830061531 55 9 0.0 2.0 0.00 0.00 0.00 92 1021.8
20260830061017 55 205 0.0 2.0 0.00 0.00 0.00 92 1021.7
20260830060520 55 265 1.0 3.0 0.00 0.00 0.00 92 1021.8
20260830060020 55 247 1.0 3.0 0.00 0.00 0.00 92 1021.8
20260830055507 55 221 1.0 3.0 0.00 0.00 0.00 92 1021.8
20260830055010 55 247 1.0 3.0 0.00 0.00 0.00 92 1022.0
20260830054525 54 234 1.0 2.0 0.00 0.00 0.00 92 1022.0
20260830054011 54 247 0.0 2.0 0.00 0.00 0.00 92 1022.0
20260830053514 54 51 0.0 2.0 0.00 0.00 0.00 92 1022.0
20260830053034 54 265 0.0 2.0 0.00 0.00 0.00 92 1022.0
20260830052514 54 76 0.0 2.0 0.00 0.00 0.00 92 1022.0
20260830052021 55 9 0.0 2.0 0.00 0.00 0.00 92 1022.1
20260830051536 55 243 1.0 3.0 0.00 0.00 0.00 92 1022.1
20260830051021 55 238 1.0 3.0 0.00 0.00 0.00 92 1022.2
20260830050517 55 234 1.0 3.0 0.00 0.00 0.00 92 1022.2
20260830050039 54 279 1.0 3.0 0.00 0.00 0.00 92 1022.3
20260830045517 55 243 2.0 5.0 0.00 0.00 0.00 92 1022.2
20260830045017 54 210 2.0 5.0 0.00 0.00 0.00 92 1022.2
20260830044520 54 215 3.0 5.0 0.00 0.00 0.00 92 1022.2
20260830044014 54 208 1.0 2.0 0.00 0.00 0.00 92 1022.3
20260830043513 54 196 1.0 2.0 0.00 0.00 0.00 92 1022.2
20260830043029 54 212 0.0 2.0 0.00 0.00 0.00 92 1022.2
20260830042511 54 232 1.0 2.0 0.00 0.00 0.00 92 1022.2
20260830042017 54 221 0.0 2.0 0.00 0.00 0.00 91 1022.1
20260830041528 54 254 1.0 2.0 0.00 0.00 0.00 91 1022.0
20260830041019 54 51 0.0 2.0 0.00 0.00 0.00 91 1021.9
20260830040518 54 178 0.0 2.0 0.00 0.00 0.00 91 1021.8
20260830040034 55 247 0.0 4.0 0.00 0.00 0.00 91 1021.9
20260830035515 54 265 0.0 4.0 0.00 0.00 0.00 91 1021.8
20260830035015 55 265 2.0 4.0 0.00 0.00 0.00 91 1021.9
20260830034538 55 247 1.0 3.0 0.00 0.00 0.00 91 1021.8
20260830034017 55 232 0.0 2.0 0.00 0.00 0.00 91 1021.8
20260830033518 55 221 0.0 4.0 0.00 0.00 0.00 91 1021.9
20260830033023 55 221 1.0 6.0 0.00 0.00 0.00 91 1021.9
20260830032521 55 205 3.0 6.0 0.00 0.00 0.00 91 1021.9
20260830032004 55 247 2.0 4.0 0.00 0.00 0.00 91 1021.9
20260830031508 55 238 2.0 3.0 0.00 0.00 0.00 90 1021.9
20260830031003 55 265 1.0 4.0 0.00 0.00 0.00 90 1022.0
20260830030507 55 146 1.0 4.0 0.00 0.00 0.00 90 1022.0
20260830030007 55 229 2.0 5.0 0.00 0.00 0.00 90 1022.0
20260830025503 55 225 3.0 5.0 0.00 0.00 0.00 89 1022.1
20260830025006 56 301 1.0 3.0 0.00 0.00 0.00 90 1022.0
20260830024510 56 265 1.0 3.0 0.00 0.00 0.00 90 1022.0
20260830024006 56 41 1.0 5.0 0.00 0.00 0.00 89 1022.1
20260830023506 56 178 0.0 5.0 0.00 0.00 0.00 89 1022.0
20260830023014 56 196 3.0 5.0 0.00 0.00 0.00 89 1022.0
20260830022508 56 215 4.0 5.0 0.00 0.00 0.00 89 1022.0
20260830022004 56 243 1.0 3.0 0.00 0.00 0.00 88 1022.1
20260830021512 57 243 1.0 3.0 0.00 0.00 0.00 88 1022.0
20260830021006 57 254 1.0 4.0 0.00 0.00 0.00 89 1022.1
20260830020504 57 9 1.0 4.0 0.00 0.00 0.00 88 1022.1
20260830020034 57 334 0.0 3.0 0.00 0.00 0.00 87 1022.1
20260830015504 57 232 1.0 3.0 0.00 0.00 0.00 87 1022.1
20260830015005 58 247 1.0 4.0 0.00 0.00 0.00 86 1022.1
20260830014508 58 247 1.0 4.0 0.00 0.00 0.00 86 1022.2
20260830014003 58 215 2.0 4.0 0.00 0.00 0.00 86 1022.1
20260830013508 59 265 1.0 2.0 0.00 0.00 0.00 86 1022.0
20260830013015 58 221 1.0 2.0 0.00 0.00 0.00 87 1022.1
20260830012507 58 212 1.0 3.0 0.00 0.00 0.00 86 1022.2
20260830012011 59 265 1.0 3.0 0.00 0.00 0.00 86 1022.1
20260830011518 59 229 1.0 3.0 0.00 0.00 0.00 86 1022.1
20260830011006 59 221 1.0 2.0 0.00 0.00 0.00 85 1022.0
20260830010506 60 221 1.0 2.0 0.00 0.00 0.00 85 1022.0
20260830010035 60 232 0.0 3.0 0.00 0.00 0.00 85 1022.0
20260830005507 60 250 1.0 3.0 0.00 0.00 0.00 85 1021.9
20260830005011 60 205 1.0 3.0 0.00 0.00 0.00 84 1021.8
20260830004517 60 234 1.0 3.0 0.00 0.00 0.00 84 1021.8
20260830004006 60 234 1.0 3.0 0.00 0.00 0.00 84 1021.6
20260830003504 60 238 1.0 3.0 0.00 0.00 0.00 84 1021.8
20260830003016 60 265 2.0 3.0 0.00 0.00 0.00 84 1021.7
20260830002508 61 265 1.0 2.0 0.00 0.00 0.00 83 1021.6
20260830002008 61 265 0.0 3.0 0.00 0.00 0.00 82 1021.5
20260830001519 62 247 1.0 3.0 0.00 0.00 0.00 81 1021.5
20260830001009 62 309 1.0 3.0 0.00 0.00 0.00 80 1021.6